Find COSMO 2

NORAD ID: 32376 Int'l Des: 2007-059 Owner: ASI Country: I operational
LEOCIRCULARRETROGRADESSO

Live-Position

3D-Globus wird geladen...

Über COSMO 2

Beschreibung wird geladen...

Nächste Überflüge

Passes for default location (London). Set your location on the main map for personalized predictions.

Höhenverlauf

Loading altitude history...

Zweizeiliger Elementsatz

1 32376U 07059A 26122.18636088 .00000244 00000-0 37240-4 0 9995
2 32376 97.8884 306.4514 0001466 89.7556 270.3825 14.82146971995189
Epoch: 2. Mai 2026 • Age: 3 hours

Aktueller Status

Höhe 626.9 km
Geschwindigkeit 7.55 km/s
Subsatellitenpunkt 36.33°N, 37.64°W
Startdatum 9. Dez. 2007
Alter 18.3 years
Typ other

Technische Details

Klassifizierung Payload
Masse 1900.00 kg
Trockenmasse 1700.00 kg
Gesamtmasse 1900.00 kg
Länge 1.40 m
Durchmesser 1.40 m
Spannweite 12.00 m
Form Box + 2 Pan
Hersteller THALA
Bus-Typ Prima
Phasenstatus In Orbit
Besitzer/Staat ASI/I

Most Searched